Location: Korczew
(51.3586°N, 19.4491°E)
Time: 23:04:11
(UTC+00:00)

NOSS 2-1 (E) - Pass Details

Date: 19 May 2025
Orbit: 385 x 1749 km, 63.3° (Epoch: 07 May)

Event Time Altitude Azimuth Distance (km) Brightness Sun altitude
Exits shadow 22:21:20 41° 246° (WSW) 621 3.4 -18.6°
Maximum altitude 22:22:17 69° 316° (NW) 440 2.9 -18.6°
Drops below altitude 10° 22:25:18 10° 41° (NE) 1,423 6.1 -18.6°
Sets 22:27:17 0° 44° (NE) 2,287 7.1 -18.6°
